| time (UTC) | temp F | wind direction | speed MPH | gust MPH | rain 1hr in | rain 24hr in | rain mn in | humidity % | barometer mb |
| 20260503040548 | 38 | 181 | 0.0 | 0.0 | 0.00 | 0.00 | 0.00 | 81 | 978.7 |
| 20260503035910 | 38 | 181 | 0.0 | 0.0 | 0.00 | 0.00 | 0.00 | 82 | 978.8 |
| 20260503035230 | 38 | 181 | 0.0 | 0.0 | 0.00 | 0.00 | 0.00 | 82 | 978.9 |
| 20260503034552 | 38 | 181 | 0.0 | 0.0 | 0.00 | 0.00 | 0.00 | 81 | 978.9 |
| 20260503033911 | 39 | 181 | 0.0 | 0.0 | 0.00 | 0.00 | 0.00 | 80 | 978.9 |
| 20260503033234 | 39 | 181 | 0.0 | 0.0 | 0.00 | 0.00 | 0.00 | 79 | 979.0 |
| 20260503032552 | 39 | 181 | 0.0 | 0.0 | 0.00 | 0.00 | 0.00 | 78 | 979.0 |
| 20260503031915 | 40 | 181 | 0.0 | 0.0 | 0.00 | 0.00 | 0.00 | 77 | 979.0 |
| 20260503031308 | 40 | 210 | 1.0 | 5.0 | 0.00 | 0.00 | 0.00 | 77 | 979.0 |
| 20260503031234 | 40 | 210 | 1.0 | 5.0 | 0.00 | 0.00 | 0.00 | 77 | 979.0 |
| 20260503030557 | 40 | 201 | 0.0 | 0.0 | 0.00 | 0.00 | 0.00 | 77 | 979.1 |
| 20260503025916 | 40 | 201 | 0.0 | 0.0 | 0.00 | 0.00 | 0.00 | 76 | 979.1 |
| 20260503025238 | 40 | 201 | 0.0 | 0.0 | 0.00 | 0.00 | 0.00 | 75 | 979.1 |
| 20260503024557 | 41 | 201 | 0.0 | 0.0 | 0.00 | 0.00 | 0.00 | 74 | 979.2 |
| 20260503023920 | 41 | 240 | 0.0 | 0.0 | 0.00 | 0.00 | 0.00 | 74 | 979.2 |
| 20260503023239 | 41 | 179 | 0.0 | 0.0 | 0.00 | 0.00 | 0.00 | 73 | 979.3 |
| 20260503022601 | 41 | 179 | 0.0 | 0.0 | 0.00 | 0.00 | 0.00 | 72 | 979.2 |
| 20260503021920 | 42 | 208 | 0.0 | 3.0 | 0.00 | 0.00 | 0.00 | 71 | 979.1 |
| 20260503021243 | 42 | 135 | 0.0 | 0.0 | 0.00 | 0.00 | 0.00 | 70 | 979.1 |
| 20260503020602 | 42 | 205 | 3.0 | 0.0 | 0.00 | 0.00 | 0.00 | 69 | 979.1 |
| 20260503015924 | 43 | 188 | 3.0 | 4.0 | 0.00 | 0.00 | 0.00 | 68 | 979.1 |
| 20260503015243 | 43 | 207 | 4.0 | 0.0 | 0.00 | 0.00 | 0.00 | 67 | 979.1 |
| 20260503014606 | 43 | 249 | 1.0 | 3.0 | 0.00 | 0.00 | 0.00 | 66 | 979.0 |
| 20260503013925 | 44 | 210 | 3.0 | 6.0 | 0.00 | 0.00 | 0.00 | 65 | 978.9 |
| 20260503013247 | 44 | 203 | 2.0 | 0.0 | 0.00 | 0.00 | 0.00 | 63 | 978.9 |
| 20260503012606 | 44 | 191 | 0.0 | 0.0 | 0.00 | 0.00 | 0.00 | 61 | 978.8 |
| 20260503011929 | 45 | 197 | 1.0 | 3.0 | 0.00 | 0.00 | 0.00 | 60 | 978.7 |
| 20260503011248 | 45 | 193 | 7.0 | 7.0 | 0.00 | 0.00 | 0.00 | 57 | 978.6 |
| 20260503010610 | 45 | 280 | 0.0 | 0.0 | 0.00 | 0.00 | 0.00 | 53 | 978.5 |
| 20260503005930 | 46 | 280 | 0.0 | 0.0 | 0.00 | 0.00 | 0.00 | 51 | 978.4 |
| 20260503005252 | 46 | 280 | 0.0 | 0.0 | 0.00 | 0.00 | 0.00 | 50 | 978.3 |
| 20260503004611 | 47 | 280 | 0.0 | 0.0 | 0.00 | 0.00 | 0.00 | 49 | 978.2 |
| 20260503003934 | 48 | 280 | 0.0 | 0.0 | 0.00 | 0.00 | 0.00 | 48 | 978.1 |
| 20260503003253 | 48 | 280 | 0.0 | 0.0 | 0.00 | 0.00 | 0.00 | 46 | 977.9 |
| 20260503002615 | 49 | 280 | 0.0 | 0.0 | 0.00 | 0.00 | 0.00 | 45 | 977.8 |
| 20260503001934 | 49 | 280 | 0.0 | 0.0 | 0.00 | 0.00 | 0.00 | 44 | 977.7 |
| 20260503001257 | 49 | 280 | 0.0 | 0.0 | 0.00 | 0.00 | 0.00 | 44 | 977.6 |
| 20260503000616 | 50 | 333 | 1.0 | 0.0 | 0.00 | 0.00 | 0.00 | 44 | 977.7 |
| 20260502235939 | 50 | 314 | 3.0 | 0.0 | 0.00 | 0.00 | 0.00 | 43 | 977.7 |
| 20260502235626 | 50 | 290 | 0.0 | 0.0 | 0.00 | 0.00 | 0.00 | 43 | 977.7 |
| 20260502235258 | 50 | 290 | 0.0 | 0.0 | 0.00 | 0.00 | 0.00 | 43 | 977.7 |
| 20260502234620 | 50 | 190 | 0.0 | 0.0 | 0.00 | 0.00 | 0.00 | 44 | 977.7 |
| 20260502233940 | 50 | 211 | 0.0 | 0.0 | 0.00 | 0.00 | 0.00 | 43 | 977.7 |
| 20260502233302 | 50 | 326 | 0.0 | 0.0 | 0.00 | 0.00 | 0.00 | 42 | 977.7 |
| 20260502232621 | 50 | 232 | 2.0 | 0.0 | 0.00 | 0.00 | 0.00 | 42 | 977.9 |
| 20260502231944 | 51 | 284 | 4.0 | 0.0 | 0.00 | 0.00 | 0.00 | 41 | 977.9 |
| 20260502231303 | 51 | 266 | 3.0 | 3.0 | 0.00 | 0.00 | 0.00 | 41 | 978.0 |
| 20260502225945 | 51 | 232 | 0.0 | 0.0 | 0.00 | 0.00 | 0.00 | 42 | 978.0 |
| 20260502225308 | 51 | 309 | 1.0 | 0.0 | 0.00 | 0.00 | 0.00 | 43 | 978.1 |
| 20260502224627 | 51 | 312 | 6.0 | 7.0 | 0.00 | 0.00 | 0.00 | 43 | 978.0 |
| 20260502223949 | 51 | 293 | 5.0 | 6.0 | 0.00 | 0.00 | 0.00 | 43 | 978.1 |
| 20260502223308 | 51 | 229 | 5.0 | 3.0 | 0.00 | 0.00 | 0.00 | 43 | 978.1 |
| 20260502222631 | 51 | 273 | 2.0 | 5.0 | 0.00 | 0.00 | 0.00 | 43 | 978.1 |
| 20260502221950 | 51 | 249 | 3.0 | 0.0 | 0.00 | 0.00 | 0.00 | 43 | 978.1 |
| 20260502221313 | 51 | 238 | 1.0 | 0.0 | 0.00 | 0.00 | 0.00 | 43 | 978.1 |
| 20260502220632 | 51 | 297 | 5.0 | 4.0 | 0.00 | 0.00 | 0.00 | 42 | 978.1 |
| 20260502215955 | 51 | 233 | 4.0 | 0.0 | 0.00 | 0.00 | 0.00 | 43 | 978.1 |
| 20260502215314 | 51 | 269 | 6.0 | 5.0 | 0.00 | 0.00 | 0.00 | 42 | 978.2 |
| 20260502214637 | 51 | 301 | 6.0 | 1.0 | 0.00 | 0.00 | 0.00 | 42 | 978.2 |
| 20260502213956 | 51 | 321 | 4.0 | 13.0 | 0.00 | 0.00 | 0.00 | 43 | 978.3 |
| 20260502213318 | 51 | 316 | 4.0 | 3.0 | 0.00 | 0.00 | 0.00 | 42 | 978.1 |
| 20260502212638 | 51 | 302 | 9.0 | 8.0 | 0.00 | 0.00 | 0.00 | 41 | 978.1 |
| 20260502212000 | 51 | 269 | 2.0 | 4.0 | 0.00 | 0.00 | 0.00 | 43 | 978.1 |
| 20260502211319 | 51 | 312 | 6.0 | 0.0 | 0.00 | 0.00 | 0.00 | 42 | 978.2 |
| 20260502210642 | 51 | 302 | 3.0 | 0.0 | 0.00 | 0.00 | 0.00 | 43 | 978.2 |
| 20260502210001 | 51 | 219 | 1.0 | 0.0 | 0.00 | 0.00 | 0.00 | 43 | 978.2 |
| 20260502205324 | 51 | 269 | 4.0 | 10.0 | 0.00 | 0.00 | 0.00 | 43 | 978.3 |
| 20260502204643 | 52 | 336 | 5.0 | 6.0 | 0.00 | 0.00 | 0.00 | 44 | 978.4 |
| 20260502204006 | 51 | 266 | 0.0 | 3.0 | 0.00 | 0.00 | 0.00 | 45 | 978.5 |
| 20260502203325 | 51 | 329 | 2.0 | 7.0 | 0.00 | 0.00 | 0.00 | 45 | 978.7 |
| 20260502202648 | 52 | 291 | 6.0 | 8.0 | 0.00 | 0.00 | 0.00 | 44 | 978.9 |
| 20260502202007 | 51 | 233 | 4.0 | 3.0 | 0.00 | 0.00 | 0.00 | 45 | 978.9 |
| 20260502201330 | 51 | 305 | 0.0 | 3.0 | 0.00 | 0.00 | 0.00 | 47 | 979.1 |
| 20260502200649 | 50 | 293 | 8.0 | 8.0 | 0.00 | 0.00 | 0.00 | 46 | 979.1 |
| 20260502200012 | 49 | 336 | 0.0 | 0.0 | 0.00 | 0.00 | 0.00 | 48 | 979.0 |
| 20260502194654 | 50 | 314 | 7.0 | 8.0 | 0.00 | 0.00 | 0.00 | 48 | 979.5 |
| 20260502194013 | 49 | 333 | 3.0 | 0.0 | 0.00 | 0.00 | 0.00 | 48 | 979.4 |
| 20260502193335 | 49 | 271 | 5.0 | 0.0 | 0.00 | 0.00 | 0.00 | 48 | 979.6 |
| 20260502192655 | 49 | 273 | 3.0 | 6.0 | 0.00 | 0.00 | 0.00 | 49 | 979.6 |
| 20260502192017 | 49 | 262 | 5.0 | 4.0 | 0.00 | 0.00 | 0.00 | 48 | 979.5 |
| 20260502191337 | 50 | 316 | 0.0 | 0.0 | 0.00 | 0.00 | 0.00 | 46 | 979.7 |
| 20260502190659 | 51 | 269 | 4.0 | 4.0 | 0.00 | 0.00 | 0.00 | 47 | 979.7 |
| 20260502190019 | 51 | 235 | 5.0 | 7.0 | 0.00 | 0.00 | 0.00 | 48 | 979.8 |
| 20260502185341 | 50 | 198 | 7.0 | 6.0 | 0.00 | 0.00 | 0.00 | 48 | 979.9 |
| 20260502184700 | 49 | 283 | 0.0 | 5.0 | 0.00 | 0.00 | 0.00 | 51 | 980.0 |
| 20260502184023 | 48 | 278 | 5.0 | 7.0 | 0.00 | 0.00 | 0.00 | 50 | 980.0 |
| 20260502183342 | 48 | 219 | 2.0 | 0.0 | 0.00 | 0.00 | 0.00 | 51 | 980.1 |
| 20260502182705 | 48 | 307 | 5.0 | 0.0 | 0.00 | 0.00 | 0.00 | 49 | 980.0 |
| 20260502182024 | 48 | 281 | 3.0 | 5.0 | 0.00 | 0.00 | 0.00 | 51 | 980.1 |
| 20260502181347 | 48 | 262 | 4.0 | 3.0 | 0.00 | 0.00 | 0.00 | 50 | 980.1 |
| 20260502180706 | 48 | 228 | 1.0 | 0.0 | 0.00 | 0.00 | 0.00 | 50 | 980.2 |
| 20260502164041 | 47 | 290 | 1.0 | 0.0 | 0.00 | 0.00 | 0.00 | 57 | 981.0 |
| 20260502163400 | 47 | 329 | 5.0 | 3.0 | 0.00 | 0.00 | 0.00 | 59 | 981.2 |
| 20260502162723 | 46 | 273 | 2.0 | 2.0 | 0.00 | 0.00 | 0.00 | 62 | 981.2 |
| 20260502162042 | 46 | 353 | 2.0 | 5.0 | 0.00 | 0.00 | 0.00 | 61 | 981.3 |
| 20260502161405 | 46 | 245 | 4.0 | 8.0 | 0.00 | 0.00 | 0.00 | 62 | 981.4 |
| 20260502160724 | 45 | 219 | 0.0 | 0.0 | 0.00 | 0.00 | 0.00 | 66 | 981.4 |
| 20260502152054 | 44 | 224 | 5.0 | 3.0 | 0.00 | 0.00 | 0.00 | 72 | 982.0 |
| 20260502151412 | 43 | 305 | 3.0 | 0.0 | 0.00 | 0.00 | 0.00 | 73 | 982.0 |
| 20260502150735 | 43 | 239 | 4.0 | 0.0 | 0.00 | 0.00 | 0.00 | 73 | 982.0 |
| 20260502140105 | 41 | 134 | 2.0 | 0.0 | 0.00 | 0.00 | 0.00 | 84 | 982.2 |
| 20260502130113 | 39 | 281 | 2.0 | 0.0 | 0.00 | 0.00 | 0.00 | 95 | 982.7 |
| 20260502123437 | 37 | 308 | 1.0 | 0.0 | 0.00 | 0.00 | 0.00 | 100 | 983.1 |
| 20260502122759 | 37 | 359 | 0.0 | 0.0 | 0.00 | 0.00 | 0.00 | 100 | 983.2 |
| 20260502122119 | 36 | 359 | 0.0 | 0.0 | 0.00 | 0.00 | 0.00 | 100 | 983.4 |
| 20260502121441 | 35 | 359 | 0.0 | 0.0 | 0.00 | 0.00 | 0.00 | 100 | 983.5 |
| 20260502120801 | 34 | 359 | 0.0 | 0.0 | 0.00 | 0.00 | 0.00 | 100 | 983.5 |
| 20260502120124 | 33 | 359 | 0.0 | 0.0 | 0.00 | 0.00 | 0.00 | 100 | 983.6 |
| 20260502115442 | 32 | 359 | 0.0 | 0.0 | 0.00 | 0.00 | 0.00 | 100 | 983.7 |
| 20260502114805 | 31 | 359 | 0.0 | 0.0 | 0.00 | 0.00 | 0.00 | 100 | 983.7 |
| 20260502113447 | 30 | 359 | 0.0 | 0.0 | 0.00 | 0.00 | 0.00 | 100 | 983.9 |
| 20260502112806 | 29 | 359 | 0.0 | 0.0 | 0.00 | 0.00 | 0.00 | 100 | 983.7 |
| 20260502112129 | 29 | 359 | 0.0 | 0.0 | 0.00 | 0.00 | 0.00 | 100 | 983.7 |
| 20260502110811 | 28 | 359 | 0.0 | 0.0 | 0.00 | 0.00 | 0.00 | 100 | 983.7 |
| 20260502110130 | 28 | 359 | 0.0 | 0.0 | 0.00 | 0.00 | 0.00 | 100 | 983.7 |
| 20260502105453 | 28 | 359 | 0.0 | 0.0 | 0.00 | 0.00 | 0.00 | 100 | 983.7 |
| 20260502104812 | 28 | 359 | 0.0 | 0.0 | 0.00 | 0.00 | 0.00 | 100 | 983.6 |
| 20260502104135 | 28 | 359 | 0.0 | 0.0 | 0.00 | 0.00 | 0.00 | 100 | 983.6 |
| 20260502103454 | 28 | 359 | 0.0 | 0.0 | 0.00 | 0.00 | 0.00 | 100 | 983.6 |
| 20260502102816 | 27 | 359 | 0.0 | 0.0 | 0.00 | 0.00 | 0.00 | 100 | 983.7 |
| 20260502102136 | 27 | 359 | 0.0 | 0.0 | 0.00 | 0.00 | 0.00 | 100 | 983.7 |
| 20260502101459 | 27 | 359 | 0.0 | 0.0 | 0.00 | 0.00 | 0.00 | 100 | 983.7 |
| 20260502100817 | 27 | 359 | 0.0 | 0.0 | 0.00 | 0.00 | 0.00 | 100 | 983.7 |
| 20260502100140 | 27 | 359 | 0.0 | 0.0 | 0.00 | 0.00 | 0.00 | 100 | 983.6 |
| 20260502091505 | 28 | 359 | 0.0 | 0.0 | 0.00 | 0.00 | 0.00 | 100 | 983.4 |
| 20260502090147 | 28 | 359 | 0.0 | 0.0 | 0.00 | 0.00 | 0.00 | 100 | 983.2 |
| 20260502071521 | 29 | 359 | 0.0 | 0.0 | 0.00 | 0.00 | 0.00 | 100 | 983.0 |
| 20260502070844 | 30 | 359 | 0.0 | 0.0 | 0.00 | 0.00 | 0.00 | 100 | 983.0 |
| 20260502070203 | 30 | 359 | 0.0 | 0.0 | 0.00 | 0.00 | 0.00 | 100 | 983.0 |
| 20260502065525 | 30 | 359 | 0.0 | 0.0 | 0.00 | 0.00 | 0.00 | 100 | 983.0 |
| 20260502064845 | 30 | 359 | 0.0 | 0.0 | 0.00 | 0.00 | 0.00 | 100 | 982.9 |
| 20260502064207 | 30 | 359 | 0.0 | 0.0 | 0.00 | 0.00 | 0.00 | 99 | 982.9 |
| 20260502063526 | 31 | 359 | 0.0 | 0.0 | 0.00 | 0.00 | 0.00 | 98 | 982.9 |
| 20260502062849 | 31 | 359 | 0.0 | 0.0 | 0.00 | 0.00 | 0.00 | 97 | 982.8 |
| 20260502062208 | 32 | 359 | 0.0 | 0.0 | 0.00 | 0.00 | 0.00 | 97 | 982.8 |
| 20260502061531 | 32 | 359 | 0.0 | 0.0 | 0.00 | 0.00 | 0.00 | 97 | 982.8 |
| 20260502060850 | 33 | 359 | 0.0 | 0.0 | 0.00 | 0.00 | 0.00 | 96 | 982.9 |
| 20260502060213 | 33 | 359 | 0.0 | 0.0 | 0.00 | 0.00 | 0.00 | 96 | 982.8 |
| 20260502055532 | 33 | 359 | 0.0 | 0.0 | 0.00 | 0.00 | 0.00 | 96 | 982.8 |
| 20260502054855 | 33 | 359 | 0.0 | 0.0 | 0.00 | 0.00 | 0.00 | 95 | 982.8 |
| 20260502054214 | 33 | 359 | 0.0 | 0.0 | 0.00 | 0.00 | 0.00 | 95 | 982.7 |
| 20260502053536 | 34 | 359 | 0.0 | 0.0 | 0.00 | 0.00 | 0.00 | 94 | 982.8 |
| 20260502052856 | 34 | 359 | 0.0 | 0.0 | 0.00 | 0.00 | 0.00 | 94 | 982.7 |
| 20260502052218 | 34 | 359 | 0.0 | 0.0 | 0.00 | 0.00 | 0.00 | 93 | 982.6 |
| 20260502051537 | 34 | 359 | 0.0 | 0.0 | 0.00 | 0.00 | 0.00 | 93 | 982.6 |
| 20260502050900 | 35 | 359 | 0.0 | 0.0 | 0.00 | 0.00 | 0.00 | 92 | 982.6 |
| 20260502050219 | 35 | 359 | 0.0 | 0.0 | 0.00 | 0.00 | 0.00 | 92 | 982.6 |
| 20260502045542 | 35 | 359 | 0.0 | 0.0 | 0.00 | 0.00 | 0.00 | 91 | 982.6 |
| 20260502044901 | 35 | 359 | 0.0 | 0.0 | 0.00 | 0.00 | 0.00 | 91 | 982.6 |
| 20260502044224 | 36 | 359 | 0.0 | 0.0 | 0.00 | 0.00 | 0.00 | 91 | 982.6 |
| 20260502043543 | 36 | 359 | 0.0 | 0.0 | 0.00 | 0.00 | 0.00 | 90 | 982.5 |
| 20260502042906 | 36 | 359 | 0.0 | 0.0 | 0.00 | 0.00 | 0.00 | 90 | 982.6 |
| 20260502042225 | 36 | 359 | 0.0 | 0.0 | 0.00 | 0.00 | 0.00 | 90 | 982.5 |